User: anonymous   Login
Location: CNYAC Observatory
(43.2150°N, 74.9500°W)
Time: 09:28:13
(UTC-04:00)
Language:

Cosmos 1300 Rocket - Orbit

View from above orbital plane
View from above orbital plane
View from above satellite
View from above satellite

Ground track
Ground track

The orbit data is extracted from the following two-line orbital elements,

1 12786U 81082B   16239.47374827  .00000092  00000-0  80189-5 0  9998
2 12786  82.4861 245.4515 0018514 143.7288 216.5187 14.84633074891089
Epoch (UTC): 26 August 2016 11:22:11
Eccentricity: 0.0018514
inclination: 82.4861°
perigee height: 602 km
apogee height: 627 km
right ascension of ascending node: 245.4515°
argument of perigee: 143.7288°
revolutions per day: 14.84633074
mean anomaly at epoch: 216.5187°
orbit number at epoch: 89108

The dashed part of the orbit path shows where the satellite is in the earth's shadow,  

DLR